�N����,����,����,����,����,�C��,���x,�~����,�S�V����,�ő�u�ԕ���,,,,,
,,,,,,,,,����,����,����,�N��,,
yyyy/mm/dd,hh:mm:ss,(16),16����,m/s,��,%,mm,KW/�u,(16),16����,m/s,Time,,
2015/6/1,1:00:00,12,��,2,5.1,94.1,0,0,12,��,3.4,15,,
2015/6/1,2:00:00,13,���k��,1.6,4,94.1,0,0,13,���k��,4,14,,
2015/6/1,3:00:00,12,��,2.1,4.9,93.8,0,0,12,��,4.8,41,,
2015/6/1,4:00:00,13,���k��,0.7,4.2,94.4,0,0.01,12,��,4.2,23,,
2015/6/1,5:00:00,12,��,2.4,6.5,92.5,0,0.07,12,��,3.6,47,,
2015/6/1,6:00:00,12,��,1.7,10.5,85.3,0,0.23,12,��,3.5,18,,
2015/6/1,7:00:00,12,��,1.2,16.1,71,0,0.43,12,��,2.6,10,,
2015/6/1,8:00:00,4,��,0.7,20.2,63.8,0,0.62,5,���쓌,2.2,27,,
2015/6/1,9:00:00,7,��쓌,2.5,20.1,45.8,0,0.79,7,��쓌,3.8,48,,
2015/6/1,10:00:00,7,��쓌,2,22.6,41.4,0,0.93,7,��쓌,4.9,6,,
2015/6/1,11:00:00,7,��쓌,2.6,22,45.6,0,1.03,7,��쓌,4.9,48,,
2015/6/1,12:00:00,7,��쓌,3.2,21.9,44.1,0,1.06,7,��쓌,5.4,50,,
2015/6/1,13:00:00,9,��쐼,1.3,23.7,36.4,0,1.02,7,��쓌,4.8,35,,
2015/6/1,14:00:00,10,�쐼,7.5,25.8,30.7,0,0.92,10,�쐼,13.5,58,,
2015/6/1,15:00:00,10,�쐼,10,24.5,24.2,0,0.77,10,�쐼,15,47,,
2015/6/1,16:00:00,11,���쐼,8,23.2,25.6,0,0.6,11,���쐼,17.4,35,,
2015/6/1,17:00:00,11,���쐼,7.7,21.1,32.3,0,0.36,10,�쐼,12.3,5,,
2015/6/1,18:00:00,11,���쐼,5.5,20.5,33,0,0.13,11,���쐼,11.1,20,,
2015/6/1,19:00:00,9,��쐼,2.5,19.2,32.3,0,0.05,10,�쐼,9,17,,
2015/6/1,20:00:00,8,��,2,14.8,46.1,0,0,9,��쐼,5.8,4,,
2015/6/1,21:00:00,12,��,0.6,10.6,82.2,0,0,8,��,5.4,12,,
2015/6/1,22:00:00,12,��,3.4,15.1,54.7,0,0,12,��,5.4,58,,
2015/6/1,23:00:00,12,��,3,15,55.2,0,0,12,��,6.2,20,,
2015/6/1,0:00:00,12,��,0.6,11.2,64.1,0,0,11,���쐼,5,1,,
2015/6/2,1:00:00,12,��,2.6,14.4,50.5,0,0,12,��,5.5,46,,
2015/6/2,2:00:00,10,�쐼,5,18,37.4,0,0,11,���쐼,8.5,55,,
2015/6/2,3:00:00,11,���쐼,5.8,19.5,33.5,0,0,10,�쐼,9.5,56,,
2015/6/2,4:00:00,13,���k��,2.3,17.9,35.4,0,0,11,���쐼,8,28,,
2015/6/2,5:00:00,13,���k��,0.3,12.5,67.6,0,0.04,12,��,6.3,8,,
2015/6/2,6:00:00,2,�k��,2.4,13.4,71,0,0.19,3,���k��,3.6,39,,
2015/6/2,7:00:00,1,�k�k��,1.2,15.9,68.7,0,0.27,2,�k��,3,6,,
2015/6/2,8:00:00,13,���k��,3.8,21,38.4,0,0.45,12,��,7.9,52,,
2015/6/2,9:00:00,12,��,5.6,21.7,32.1,0,0.54,11,���쐼,9.3,38,,
2015/6/2,10:00:00,11,���쐼,3.4,24.3,38.2,0,0.74,12,��,7.6,2,,
2015/6/2,11:00:00,10,�쐼,3.4,24.1,26.7,0,1.02,11,���쐼,9.2,20,,
2015/6/2,12:00:00,9,��쐼,4.4,27.1,28.4,0,1.07,10,�쐼,8.9,49,,
2015/6/2,13:00:00,10,�쐼,6.3,26.4,32.8,0,0.96,10,�쐼,9.7,50,,
2015/6/2,14:00:00,11,���쐼,6.7,24.6,36.1,0,0.57,11,���쐼,11.1,45,,
2015/6/2,15:00:00,11,���쐼,6.8,25,41.9,0,0.57,11,���쐼,12.1,43,,
2015/6/2,16:00:00,11,���쐼,7,23.9,36.5,0,0.19,11,���쐼,12.9,29,,
2015/6/2,17:00:00,11,���쐼,6.8,23.5,37.6,0,0.07,11,���쐼,12.7,58,,
2015/6/2,18:00:00,12,��,5.7,22.7,41.9,0,0.04,11,���쐼,12.2,1,,
2015/6/2,19:00:00,13,���k��,1.5,19.8,60.8,0,0.01,12,��,6.1,0,,
2015/6/2,20:00:00,14,�k��,2.1,18,63.9,0,0,13,���k��,3.6,59,,
2015/6/2,21:00:00,14,�k��,2.1,17.7,65.9,0,0,13,���k��,4.4,2,,
2015/6/2,22:00:00,3,���k��,2.5,15.8,61.8,0,0,3,���k��,6.2,26,,
2015/6/2,23:00:00,3,���k��,3.4,16.8,56.9,0,0,2,�k��,5.5,23,,
2015/6/2,0:00:00,2,�k��,2.6,14.9,63.5,0,0,2,�k��,5.4,7,,
2015/6/3,1:00:00,2,�k��,2.1,13,71.4,0,0,2,�k��,4.4,24,,
2015/6/3,2:00:00,2,�k��,2.6,12.7,73.5,0,0,2,�k��,5.2,35,,
2015/6/3,3:00:00,13,���k��,2.5,11.6,81.6,0,0,13,���k��,3.3,56,,
2015/6/3,4:00:00,14,�k��,2.9,11.4,81.4,0,0.01,13,���k��,5.5,56,,
2015/6/3,5:00:00,12,��,2.3,11.3,86.6,0,0.09,2,�k��,3.9,3,,
2015/6/3,6:00:00,13,���k��,1.6,13.4,79.8,0,0.16,13,���k��,3.4,6,,
2015/6/3,7:00:00,13,���k��,0.8,16.5,71.8,0,0.27,10,�쐼,3.1,4,,
2015/6/3,8:00:00,3,���k��,3.8,16.3,70.5,0,0.41,4,��,6.9,43,,
2015/6/3,9:00:00,3,���k��,4.3,16.2,68.9,0,0.6,4,��,7.8,47,,
2015/6/3,10:00:00,3,���k��,5.1,15.4,74.5,0,0.63,3,���k��,8.3,51,,
2015/6/3,11:00:00,3,���k��,5.5,12.1,81.2,0,0.45,3,���k��,9.4,33,,
2015/6/3,12:00:00,3,���k��,3.4,12.3,81.2,0,0.37,3,���k��,8.4,16,,
2015/6/3,13:00:00,3,���k��,3.3,12.2,85.6,0,0.35,3,���k��,6.4,49,,
2015/6/3,14:00:00,3,���k��,2.4,12.2,84.4,0,0.34,3,���k��,6.6,24,,
2015/6/3,15:00:00,3,���k��,3,11.1,92.6,0,0.15,2,�k��,4.9,25,,
2015/6/3,16:00:00,2,�k��,2.6,9.8,98.2,0,0.07,3,���k��,6.1,10,,
2015/6/3,17:00:00,2,�k��,2.4,10,98.9,0,0.05,2,�k��,4,55,,
2015/6/3,18:00:00,3,���k��,3,9.3,99.1,0,0.03,2,�k��,5.6,31,,
2015/6/3,19:00:00,2,�k��,2.2,9.6,99.6,1.5,0.01,3,���k��,6.4,22,,
2015/6/3,20:00:00,1,�k�k��,1.8,10.1,99.9,2.5,0,3,���k��,5.8,33,,
2015/6/3,21:00:00,12,��,2,10.2,99.9,13.5,0,12,��,3.4,41,,
2015/6/3,22:00:00,14,�k��,1,10.4,99.9,3.5,0,2,�k��,2.2,9,,
2015/6/3,23:00:00,13,���k��,1.3,10.6,99.9,2.5,0,13,���k��,2.9,39,,
2015/6/3,0:00:00,11,���쐼,0.7,11,99.8,4,0,13,���k��,4.9,20,,
2015/6/4,1:00:00,13,���k��,1.7,11.1,99.5,0,0,13,���k��,3.8,42,,
2015/6/4,2:00:00,13,���k��,1.2,10.6,98.7,0,0,12,��,3.4,0,,
2015/6/4,3:00:00,12,��,1.2,7.7,99,0,0,13,���k��,3.6,7,,
2015/6/4,4:00:00,11,���쐼,1.1,6.7,99.7,0,0,10,�쐼,3,24,,
2015/6/4,5:00:00,4,��,0.7,10.2,100,0,0.08,11,���쐼,4.9,26,,
2015/6/4,6:00:00,11,���쐼,3.4,14.5,83.1,0,0.32,12,��,5.6,47,,
2015/6/4,7:00:00,11,���쐼,1.9,15.8,80.6,0,0.4,10,�쐼,3.8,45,,
2015/6/4,8:00:00,10,�쐼,2.9,16.3,70.8,0,0.72,10,�쐼,5.8,45,,
2015/6/4,9:00:00,10,�쐼,4.6,15.9,69.5,0,0.33,10,�쐼,7.5,44,,
2015/6/4,10:00:00,10,�쐼,6.7,16.5,70.4,0,0.56,10,�쐼,10.4,55,,
2015/6/4,11:00:00,9,��쐼,5.2,17.4,66.8,0,0.93,10,�쐼,11.7,8,,
2015/6/4,12:00:00,10,�쐼,7,16.1,67.7,0,0.89,10,�쐼,11.6,38,,
2015/6/4,13:00:00,10,�쐼,6.8,18.1,60.8,0,0.82,10,�쐼,12.2,44,,
2015/6/4,14:00:00,10,�쐼,7.7,18,60.9,0,0.99,10,�쐼,12.1,56,,
2015/6/4,15:00:00,11,���쐼,7,17.8,60.5,0,0.82,10,�쐼,12.5,57,,
2015/6/4,16:00:00,10,�쐼,6.4,16.4,64.1,0,0.53,10,�쐼,13,7,,
2015/6/4,17:00:00,10,�쐼,5.1,16.5,64.5,0,0.25,10,�쐼,10,44,,
2015/6/4,18:00:00,12,��,3.2,14,75.1,0,0.16,10,�쐼,8.1,16,,
2015/6/4,19:00:00,14,�k��,2.1,14.5,67.1,0,0.01,14,�k��,5.5,27,,
2015/6/4,20:00:00,13,���k��,1.6,11.9,74,0,0,14,�k��,4.8,6,,
2015/6/4,21:00:00,13,���k��,2.2,9.8,81.7,0,0,13,���k��,2.8,57,,
2015/6/4,22:00:00,13,���k��,1.1,8.1,87.3,0,0,12,��,2.8,28,,
2015/6/4,23:00:00,14,�k��,1.7,9.7,79.1,0,0,14,�k��,3.3,55,,
2015/6/4,0:00:00,12,��,2.2,6.3,91.5,0,0,10,�쐼,4.3,10,,
2015/6/5,1:00:00,12,��,1.4,5,96,0,0,12,��,2.5,42,,
2015/6/5,2:00:00,14,�k��,0.7,4.8,95.8,0,0,1,�k�k��,3.6,48,,
2015/6/5,3:00:00,12,��,1.5,5.6,97.3,0,0,12,��,3.2,36,,
2015/6/5,4:00:00,13,���k��,0.9,6.2,95.3,0,0,13,���k��,2.9,35,,
2015/6/5,5:00:00,12,��,0.9,6.6,96.6,0,0.03,11,���쐼,1.7,56,,
2015/6/5,6:00:00,11,���쐼,0.5,9.3,92.7,0,0.15,6,�쓌,2.1,11,,
2015/6/5,7:00:00,15,�k�k��,1.7,14.1,58.3,0,0.48,1,�k�k��,4.3,41,,
2015/6/5,8:00:00,8,��,3.1,14.6,64.3,0,0.66,13,���k��,5,9,,
2015/6/5,9:00:00,7,��쓌,5.1,14.4,58.4,0,0.84,7,��쓌,7.9,53,,
2015/6/5,10:00:00,6,�쓌,3.3,14.3,61,0,0.49,8,��,12.9,15,,
2015/6/5,11:00:00,16,�k,4.1,18.3,46.7,0,0.82,1,�k�k��,8.5,53,,
2015/6/5,12:00:00,15,�k�k��,4.7,18.4,50.4,0,1.16,14,�k��,11,49,,
2015/6/5,13:00:00,16,�k,4.4,18.4,48.7,0,1.07,14,�k��,12,1,,
2015/6/5,14:00:00,16,�k,4.6,18.5,56.2,0,0.99,14,�k��,10.1,21,,
2015/6/5,15:00:00,15,�k�k��,3.7,18.1,51.9,0,0.58,14,�k��,10.2,33,,
2015/6/5,16:00:00,15,�k�k��,5,17.7,49.2,0,0.65,14,�k��,11,52,,
2015/6/5,17:00:00,14,�k��,3.6,16.6,55.5,0,0.39,14,�k��,9.2,10,,
2015/6/5,18:00:00,16,�k,3.2,15.3,58.6,0,0.23,15,�k�k��,8.7,26,,
2015/6/5,19:00:00,16,�k,2.1,12.7,69.4,0,0.05,1,�k�k��,7.4,6,,
2015/6/5,20:00:00,13,���k��,3.4,11.6,73.7,0,0,12,��,5.6,59,,
2015/6/5,21:00:00,13,���k��,1.7,10.4,78.7,0,0,1,�k�k��,5.6,4,,
2015/6/5,22:00:00,4,��,4.2,8.9,88.3,0,0,4,��,7,55,,
2015/6/5,23:00:00,3,���k��,2.6,8.2,91.1,0,0,3,���k��,5.8,7,,
2015/6/5,0:00:00,12,��,1,5.7,97.1,0,0,3,���k��,3.1,5,,
2015/6/6,1:00:00,13,���k��,0.4,5.7,97.6,0,0,13,���k��,9.6,46,,
2015/6/6,2:00:00,12,��,0.8,7.2,98.1,0,0,14,�k��,2,37,,
2015/6/6,3:00:00,14,�É�,0,7.8,96.5,0,0,12,��,2.5,8,,
2015/6/6,4:00:00,11,�É�,0.1,7.9,96.7,0,0,9,��쐼,1.3,29,,
2015/6/6,5:00:00,2,�k��,0.7,8.3,85.4,0,0.02,1,�k�k��,1.6,44,,
2015/6/6,6:00:00,13,���k��,1.5,8.5,82,0,0.07,13,���k��,2.7,55,,
2015/6/6,7:00:00,14,�k��,2.5,10,72.8,0,0.24,14,�k��,5,53,,
2015/6/6,8:00:00,12,��,1.4,10.3,70.7,0,0.31,3,���k��,4.8,19,,
2015/6/6,9:00:00,14,�k��,1.7,11.5,72.1,0,0.44,14,�k��,3.7,58,,
2015/6/6,10:00:00,5,���쓌,1.6,11.8,71,0,0.52,13,���k��,3.7,7,,
2015/6/6,11:00:00,7,��쓌,3.1,12,72.2,0,0.48,7,��쓌,5.8,12,,
2015/6/6,12:00:00,6,�쓌,3,9.6,77,0,0.6,6,�쓌,5.6,45,,
2015/6/6,13:00:00,6,�쓌,2.8,10.8,70.1,0,0.35,6,�쓌,5.1,26,,
2015/6/6,14:00:00,6,�쓌,3.9,12.1,63.4,0,0.84,6,�쓌,5.7,53,,
2015/6/6,15:00:00,5,���쓌,4.3,11.7,71.5,0,0.68,5,���쓌,6.4,47,,
2015/6/6,16:00:00,7,��쓌,2.8,10.4,73.4,0,0.48,6,�쓌,6.3,22,,
2015/6/6,17:00:00,7,��쓌,1.7,9.8,79.4,0,0.07,7,��쓌,4.4,12,,
2015/6/6,18:00:00,9,��쐼,1.6,9.4,86.5,0,0.05,7,��쓌,4.5,34,,
2015/6/6,19:00:00,10,�쐼,0.8,9.2,85.3,0,0.01,10,�쐼,2.6,12,,
2015/6/6,20:00:00,1,�É�,0.2,9,90.7,0,0,1,�k�k��,2.1,39,,
2015/6/6,21:00:00,2,�k��,1.6,9.1,85.5,0,0,2,�k��,3.1,46,,
2015/6/6,22:00:00,2,�k��,3.2,8.3,89.2,0,0,3,���k��,6.5,47,,
2015/6/6,23:00:00,3,���k��,2.2,7.6,89.2,0,0,3,���k��,6.6,6,,
2015/6/6,0:00:00,2,�k��,0.5,7.5,90.7,0,0,2,�k��,2.9,2,,
2015/6/7,1:00:00,13,���k��,0.3,7.4,94.7,0,0,11,���쐼,2.1,56,,
2015/6/7,2:00:00,13,���k��,1.5,5,97.8,0,0,11,���쐼,2.9,35,,
2015/6/7,3:00:00,15,�k�k��,1,4.4,97,0,0,12,��,1.8,35,,
2015/6/7,4:00:00,12,��,2,2.3,99.2,0,0.01,11,���쐼,2.7,56,,
2015/6/7,5:00:00,12,��,1.8,4,97.2,0,0.08,12,��,2.6,55,,
2015/6/7,6:00:00,12,��,1.3,7.2,88.1,0,0.26,12,��,3.2,32,,
2015/6/7,7:00:00,8,��,1.1,10.3,75.1,0,0.47,9,��쐼,3,41,,
2015/6/7,8:00:00,7,��쓌,2.3,11.1,68.9,0,0.66,8,��,5.3,36,,
2015/6/7,9:00:00,8,��,3.6,11.7,71.7,0,0.83,8,��,5.9,23,,
2015/6/7,10:00:00,8,��,4.3,12.3,77.1,0,0.96,8,��,6.9,54,,
2015/6/7,11:00:00,8,��,5.7,12.1,73.9,0,1.06,7,��쓌,9.1,52,,
2015/6/7,12:00:00,8,��,4.8,12.6,76.5,0,1.09,7,��쓌,9.4,40,,
2015/6/7,13:00:00,7,��쓌,3.8,12.7,75.6,0,1.07,8,��,9.1,11,,
2015/6/7,14:00:00,6,�쓌,3.6,11.8,73.4,0,0.97,7,��쓌,7.9,15,,
2015/6/7,15:00:00,7,��쓌,2.9,11.9,80.8,0,0.8,6,�쓌,5.5,43,,
2015/6/7,16:00:00,7,��쓌,1.8,12.5,74.7,0,0.61,6,�쓌,4.3,3,,
2015/6/7,17:00:00,4,��,1.2,13,82.3,0,0.28,6,�쓌,2.5,20,,
2015/6/7,18:00:00,3,���k��,1.6,12.7,82.2,0,0.23,3,���k��,2.5,51,,
2015/6/7,19:00:00,4,��,2.2,8.7,94,0,0.05,5,���쓌,3.4,47,,
2015/6/7,20:00:00,4,��,1.4,7.5,96.4,0,0,3,���k��,2.9,4,,
2015/6/7,21:00:00,1,�k�k��,0.9,7.4,97,0,0,3,���k��,3,17,,
2015/6/7,22:00:00,12,��,1.4,4.8,98.5,0,0,2,�k��,2.4,3,,
2015/6/7,23:00:00,12,��,1.6,4.3,98.8,0,0,14,�k��,2.7,15,,
2015/6/7,0:00:00,14,�k��,1.4,5.2,99.5,0,0,12,��,2.3,30,,
2015/6/8,1:00:00,12,��,1.9,5.7,99.4,0,0,12,��,2.8,0,,
2015/6/8,2:00:00,14,�k��,1.2,7.3,98.9,0,0,12,��,2.8,0,,
2015/6/8,3:00:00,12,��,1.1,7.1,98.5,0,0,13,���k��,4.9,32,,
2015/6/8,4:00:00,12,��,1.7,7.1,98.1,0,0,12,��,2.1,59,,
2015/6/8,5:00:00,13,���k��,0.6,8.2,98.3,0,0.02,12,��,2.2,3,,
2015/6/8,6:00:00,16,�k,0.4,9.5,93.4,0,0.07,14,�k��,2.2,57,,
2015/6/8,7:00:00,4,��,1.1,10,92.2,0,0.08,3,���k��,2,36,,
2015/6/8,8:00:00,3,���k��,2.7,11.8,81.8,0,0.26,4,��,3.8,55,,
2015/6/8,9:00:00,4,��,2.5,12.4,80.6,0,0.49,5,���쓌,5.1,45,,
2015/6/8,10:00:00,4,��,3.8,13.6,76.3,0,0.62,4,��,5.3,59,,
2015/6/8,11:00:00,4,��,3.9,13.4,78.9,0,1.01,4,��,5.8,56,,
2015/6/8,12:00:00,5,���쓌,3.4,13.1,80.6,0,1,5,���쓌,6.7,54,,
2015/6/8,13:00:00,5,���쓌,2.6,12.6,84,0,0.75,5,���쓌,5.6,1,,
2015/6/8,14:00:00,5,���쓌,2.7,12.1,85.4,0,0.62,5,���쓌,4.8,30,,
2015/6/8,15:00:00,5,���쓌,3.3,11.7,87.2,0,0.37,4,��,4.5,59,,
2015/6/8,16:00:00,3,���k��,2.6,11.8,87.5,0,0.32,4,��,5.3,10,,
2015/6/8,17:00:00,3,���k��,2,11.1,91.5,0,0.15,4,��,4.4,17,,
2015/6/8,18:00:00,4,��,2.2,10.7,93.5,0,0.05,3,���k��,3.9,9,,
2015/6/8,19:00:00,3,���k��,1.9,10.3,96.4,0,0.02,3,���k��,3.3,44,,
2015/6/8,20:00:00,3,���k��,0.7,10.4,99.2,0,0,4,��,2.3,5,,
2015/6/8,21:00:00,4,��,0.4,10.6,99.7,0,0,2,�k��,2.2,59,,
2015/6/8,22:00:00,2,�k��,1.8,10.7,99.9,0,0,3,���k��,3.2,45,,
2015/6/8,23:00:00,2,�k��,1.1,10.8,99.9,0,0,1,�k�k��,2.6,7,,
2015/6/8,0:00:00,16,�k,1,10.9,100,0,0,2,�k��,2.6,28,,
2015/6/9,1:00:00,16,�k,0.5,11,100,0,0,1,�k�k��,2.5,4,,
2015/6/9,2:00:00,14,�É�,0.1,11,100,0,0,15,�k�k��,1.3,8,,
2015/6/9,3:00:00,16,�É�,0,11,100,0,0,14,�k��,1.3,31,,
2015/6/9,4:00:00,5,���쓌,1.4,10.6,100,0,0,3,���k��,2.4,50,,
2015/6/9,5:00:00,4,��,1.3,11.2,100,0,0.02,3,���k��,3.4,31,,
2015/6/9,6:00:00,8,��,2.5,12.7,100,0,0.05,8,��,5,47,,
2015/6/9,7:00:00,8,��,4.5,13,100,0,0.12,8,��,9.8,24,,
2015/6/9,8:00:00,7,��쓌,4.7,13.5,99.8,0,0.19,7,��쓌,9.8,30,,
2015/6/9,9:00:00,7,��쓌,4.8,13.8,95,0,0.32,7,��쓌,9.7,5,,
2015/6/9,10:00:00,7,��쓌,4.5,13.1,93.2,0,0.27,8,��,9.9,13,,
2015/6/9,11:00:00,7,��쓌,4.1,12.8,94.5,0,0.21,8,��,8.9,4,,
2015/6/9,12:00:00,8,��,3.1,12.4,96,0,0.2,7,��쓌,9.5,41,,
2015/6/9,13:00:00,7,��쓌,3.1,12.2,96.1,0,0.18,8,��,6.3,10,,
2015/6/9,14:00:00,7,��쓌,2.4,12.1,97.3,0,0.14,7,��쓌,5.4,3,,
2015/6/9,15:00:00,5,���쓌,1.6,11.7,98.6,0.5,0.06,6,�쓌,4.1,12,,
2015/6/9,16:00:00,5,���쓌,2.7,11.5,99.3,1,0.05,6,�쓌,4.8,58,,
2015/6/9,17:00:00,5,���쓌,3.3,11.2,99.6,3,0.03,5,���쓌,5.7,11,,
2015/6/9,18:00:00,5,���쓌,3.4,11.5,99.7,5.5,0.01,6,�쓌,6.2,14,,
2015/6/9,19:00:00,4,��,3.5,11.9,99.8,3.5,0.01,3,���k��,6.7,59,,
2015/6/9,20:00:00,3,���k��,4.8,10.9,99.8,4,0,4,��,8.4,39,,
2015/6/9,21:00:00,3,���k��,4.6,10.7,99.8,2,0,3,���k��,8.4,1,,
2015/6/9,22:00:00,3,���k��,5.9,10.4,99.8,3,0,4,��,9.3,53,,
2015/6/9,23:00:00,3,���k��,5.2,10.1,99.6,2,0,3,���k��,9.4,33,,
2015/6/9,0:00:00,2,�k��,4.8,10.7,99.5,2.5,0,2,�k��,8.4,15,,
2015/6/10,1:00:00,2,�k��,4.3,10.9,98.6,0.5,0,2,�k��,8.5,14,,
2015/6/10,2:00:00,2,�k��,3.1,10.8,98.3,1.5,0,1,�k�k��,8.9,6,,
2015/6/10,3:00:00,15,�k�k��,1.6,10.8,98.4,1.5,0,1,�k�k��,5.9,7,,
2015/6/10,4:00:00,13,���k��,1.9,10.9,99.1,0.5,0,14,�k��,4.1,41,,
2015/6/10,5:00:00,13,���k��,2.4,11.4,99,0,0.01,14,�k��,3.7,59,,
2015/6/10,6:00:00,14,�k��,2.5,12,96.8,0,0.06,15,�k�k��,4.8,39,,
2015/6/10,7:00:00,14,�k��,2.3,13,94.8,0,0.16,15,�k�k��,4.8,2,,
2015/6/10,8:00:00,14,�k��,1.1,14.2,91.2,0,0.29,13,���k��,3.4,0,,
2015/6/10,9:00:00,14,�k��,1.4,17.1,80,0,0.79,14,�k��,3.1,40,,
2015/6/10,10:00:00,7,��쓌,3,16.6,82.9,0,0.82,7,��쓌,4.6,58,,
2015/6/10,11:00:00,8,��,4,16.4,73.4,0,0.98,8,��,5.9,17,,
2015/6/10,12:00:00,7,��쓌,3.9,16.7,72.1,0,1.09,7,��쓌,6.3,18,,
2015/6/10,13:00:00,6,�쓌,2.3,14.8,79.5,0,0.66,7,��쓌,5.6,1,,
2015/6/10,14:00:00,8,��,2.4,16.9,76.7,0,0.31,8,��,3.3,58,,
2015/6/10,15:00:00,6,�쓌,1.5,18.8,74.4,0,0.47,9,��쐼,3.3,0,,
2015/6/10,16:00:00,8,��,1.6,18,76.1,0,0.19,4,��,4.2,14,,
2015/6/10,17:00:00,3,���k��,1.4,15.7,84,0,0.12,4,��,5,19,,
2015/6/10,18:00:00,2,�k��,2.2,15,83.3,0,0.06,2,�k��,3.1,52,,
2015/6/10,19:00:00,2,�k��,2.2,13.4,93.4,0,0.01,2,�k��,4.7,23,,
2015/6/10,20:00:00,3,���k��,1,13,95,0,0,3,���k��,3.5,19,,
2015/6/10,21:00:00,4,��,0.5,11.9,96.2,0,0,3,���k��,2,39,,
2015/6/10,22:00:00,10,�쐼,0.9,9.4,98.5,0,0,8,��,1.9,25,,
2015/6/10,23:00:00,14,�k��,0.3,8.2,99.2,0,0,9,��쐼,1.4,13,,
2015/6/10,0:00:00,11,���쐼,0.7,7.7,99.6,0,0,12,��,1.8,37,,
2015/6/11,1:00:00,12,��,1.3,7.4,99.8,0,0,12,��,2.1,10,,
2015/6/11,2:00:00,13,���k��,2.2,7.3,100,0,0,12,��,2.7,57,,
2015/6/11,3:00:00,12,��,1.8,6.9,100,0,0,12,��,2.6,3,,
2015/6/11,4:00:00,13,���k��,0.6,6.5,100,0,0.01,12,��,3.1,34,,
2015/6/11,5:00:00,14,�k��,1,8.7,100,0,0.08,12,��,3.1,11,,
2015/6/11,6:00:00,6,�É�,0.1,11.6,100,0,0.26,13,���k��,7.6,37,,
2015/6/11,7:00:00,9,��쐼,1.2,14.6,88.2,0,0.46,7,��쓌,2.5,54,,
2015/6/11,8:00:00,7,��쓌,2.5,14.1,86.9,0,0.6,7,��쓌,4.5,41,,
2015/6/11,9:00:00,7,��쓌,3.5,14.9,78.4,0,0.77,7,��쓌,5.7,37,,
2015/6/11,10:00:00,7,��쓌,3.8,15.7,81.1,0,0.92,7,��쓌,6.9,39,,
2015/6/11,11:00:00,7,��쓌,3.2,16.2,75.5,0,1.05,8,��,6.6,33,,
2015/6/11,12:00:00,7,��쓌,4,16,78.7,0,1.12,8,��,6.1,57,,
2015/6/11,13:00:00,6,�쓌,3.5,15.5,79.3,0,1.04,6,�쓌,6.9,46,,
2015/6/11,14:00:00,5,���쓌,3.1,14.5,85.1,0,0.83,6,�쓌,5.8,44,,
2015/6/11,15:00:00,6,�쓌,3.3,14.8,83.6,0,0.77,5,���쓌,5.5,24,,
2015/6/11,16:00:00,6,�쓌,3.3,14.9,79.2,0,0.62,6,�쓌,5,33,,
2015/6/11,17:00:00,7,��쓌,2.5,14.3,79,0,0.44,6,�쓌,4.3,0,,
2015/6/11,18:00:00,7,��쓌,0.7,14.1,86.8,0,0.24,7,��쓌,4,1,,
2015/6/11,19:00:00,10,�쐼,0.9,11.8,94.6,0,0.07,10,�쐼,1.8,55,,
2015/6/11,20:00:00,11,���쐼,0.9,9.1,97.9,0,0,12,��,1.5,29,,
2015/6/11,21:00:00,13,�É�,0.1,9.5,99.4,0,0,15,�k�k��,1,45,,
2015/6/11,22:00:00,2,�k��,0.4,10.9,99.5,0,0,2,�k��,1,54,,
2015/6/11,23:00:00,3,���k��,1.1,11.3,98.9,0,0,3,���k��,1.7,54,,
2015/6/11,0:00:00,3,���k��,0.9,11.6,98.7,0,0,2,�k��,1.9,6,,
2015/6/12,1:00:00,14,�É�,0.1,11.7,98.6,0,0,1,�k�k��,1.7,17,,
2015/6/12,2:00:00,13,�É�,0.2,11.7,99.1,0,0,13,���k��,0.7,36,,
2015/6/12,3:00:00,5,�É�,0,11.6,99.1,0,0,12,��,0.5,20,,
2015/6/12,4:00:00,12,��,0.4,11.5,99.3,0,0,11,���쐼,0.6,53,,
2015/6/12,5:00:00,14,�k��,0.3,12.1,99.3,0,0.03,15,�k�k��,0.8,53,,
2015/6/12,6:00:00,7,�É�,0,13.2,91.8,0,0.14,12,��,0.8,28,,
2015/6/12,7:00:00,11,���쐼,0.4,14.4,86.4,0,0.27,6,�쓌,1.5,59,,
2015/6/12,8:00:00,6,�쓌,2.1,15.4,79.7,0,0.48,5,���쓌,3.3,51,,
2015/6/12,9:00:00,7,��쓌,2.8,16.7,72.9,0,0.8,6,�쓌,4.7,59,,
2015/6/12,10:00:00,6,�쓌,2.7,17.2,71.9,0,0.95,6,�쓌,5.2,44,,
2015/6/12,11:00:00,6,�쓌,3.4,16.5,75.7,0,1.05,6,�쓌,5.9,56,,
2015/6/12,12:00:00,7,��쓌,3.3,16,74,0,1.09,7,��쓌,5.9,30,,
2015/6/12,13:00:00,7,��쓌,3.4,15.8,78.3,0,0.83,7,��쓌,7.2,21,,
2015/6/12,14:00:00,8,��,3.2,16,75.8,0,0.78,7,��쓌,6.2,7,,
2015/6/12,15:00:00,8,��,3.5,15.5,81.5,0,0.72,7,��쓌,6.1,58,,
2015/6/12,16:00:00,7,��쓌,3.1,14.9,82.8,0,0.61,6,�쓌,6.1,41,,
2015/6/12,17:00:00,7,��쓌,2.4,14.6,83.6,0,0.43,7,��쓌,5.7,35,,
2015/6/12,18:00:00,8,��,1.3,13,92,0,0.23,7,��쓌,3.4,25,,
2015/6/12,19:00:00,9,��쐼,0.9,11.2,97,0,0.06,6,�쓌,1.9,0,,
2015/6/12,20:00:00,13,�É�,0,9.3,98.8,0,0,9,��쐼,0.9,2,,
2015/6/12,21:00:00,15,�É�,0,8.3,99.3,0,0,12,��,0.4,34,,
2015/6/12,22:00:00,12,��,1.1,8.2,99.8,0,0,12,��,1.5,0,,
2015/6/12,23:00:00,13,���k��,0.4,9.9,100,0,0,11,���쐼,2.6,7,,
2015/6/12,0:00:00,12,��,1.3,10.1,99.9,0,0,11,���쐼,2.2,21,,
2015/6/13,1:00:00,13,���k��,0.6,10.5,99.9,0,0,12,��,1.4,0,,
2015/6/13,2:00:00,12,��,1,10.4,99.8,0,0,12,��,2.1,59,,
2015/6/13,3:00:00,14,�k��,0.6,10.1,99.5,0,0,14,�k��,2.2,38,,
2015/6/13,4:00:00,12,��,0.9,10.3,99.6,0,0,11,���쐼,1.5,49,,
2015/6/13,5:00:00,12,��,1,11,99.6,0,0.03,13,���k��,1.8,4,,
2015/6/13,6:00:00,13,���k��,1.3,11.6,98.8,0,0.04,14,�k��,1.7,59,,
2015/6/13,7:00:00,16,�k,0.8,12.7,97,0,0.09,14,�k��,1.9,7,,
2015/6/13,8:00:00,3,�É�,0.2,13.2,94.4,0,0.12,2,�k��,1.8,22,,
2015/6/13,9:00:00,5,���쓌,1.4,13,97,0,0.12,5,���쓌,2.1,57,,
2015/6/13,10:00:00,4,��,1,12.8,98.6,0,0.11,4,��,2.5,35,,
2015/6/13,11:00:00,4,��,1.8,13.7,98.4,0,0.21,4,��,3.1,58,,
2015/6/13,12:00:00,4,��,2.5,13.4,98.1,0,0.17,4,��,3.4,59,,
2015/6/13,13:00:00,4,��,1.9,13.7,99.1,0.5,0.15,3,���k��,3.2,1,,
2015/6/13,14:00:00,3,���k��,2.5,13.5,98.6,0,0.2,4,��,3.7,49,,
2015/6/13,15:00:00,3,���k��,1.7,14.7,98.2,0,0.2,3,���k��,3,4,,
2015/6/13,16:00:00,5,���쓌,1.9,14.2,95.9,0,0.25,5,���쓌,3.2,45,,
2015/6/13,17:00:00,4,��,1.6,14.3,97.1,0,0.12,3,���k��,2.8,34,,
2015/6/13,18:00:00,4,��,2.3,13.8,98.2,0,0.06,4,��,3.1,45,,
2015/6/13,19:00:00,3,���k��,1.8,13,98.9,0,0.03,3,���k��,3.1,2,,
2015/6/13,20:00:00,5,���쓌,1.6,12.6,99.5,0,0,5,���쓌,2.5,36,,
2015/6/13,21:00:00,7,��쓌,1.1,12.1,99.8,0,0,7,��쓌,2.2,52,,
2015/6/13,22:00:00,9,�É�,0.1,12.1,100,0,0,6,�쓌,1.5,42,,
2015/6/13,23:00:00,1,�k�k��,1.5,12.2,100,0,0,2,�k��,2.2,59,,
2015/6/13,0:00:00,2,�k��,1.1,12.4,100,0,0,2,�k��,2.2,0,,
2015/6/14,1:00:00,3,���k��,1.2,12.6,100,0,0,2,�k��,2.5,26,,
2015/6/14,2:00:00,14,�k��,0.3,12.8,100,0,0,1,�k�k��,1.8,31,,
2015/6/14,3:00:00,12,��,0.4,12.8,100,0,0,1,�k�k��,1.9,29,,
2015/6/14,4:00:00,7,��쓌,0.9,12.6,100,0,0,7,��쓌,1.5,53,,
2015/6/14,5:00:00,6,�쓌,0.5,13.1,100,0,0.03,9,��쐼,1.6,43,,
2015/6/14,6:00:00,10,�쐼,0.7,13.5,100,0,0.09,8,��,2.9,39,,
2015/6/14,7:00:00,2,�k��,1,14.6,100,0,0.2,2,�k��,2.8,47,,
2015/6/14,8:00:00,6,�쓌,1.4,14.9,99.6,0,0.34,5,���쓌,2.9,16,,
2015/6/14,9:00:00,4,��,1.5,17.9,92,0,0.72,5,���쓌,3,55,,
2015/6/14,10:00:00,5,���쓌,1.7,18.9,87,0,0.95,7,��쓌,3.8,28,,
2015/6/14,11:00:00,7,��쓌,3.4,17,77.6,0,1.04,6,�쓌,6,57,,
2015/6/14,12:00:00,7,��쓌,2.5,17.3,84.8,0,0.92,7,��쓌,4.9,7,,
2015/6/14,13:00:00,7,��쓌,2.5,18,78.3,0,0.81,8,��,4.7,42,,
2015/6/14,14:00:00,6,�쓌,2.1,19.6,75.4,0,0.84,6,�쓌,4.4,37,,
2015/6/14,15:00:00,5,���쓌,1.8,20.1,71.9,0,0.77,5,���쓌,3,2,,
2015/6/14,16:00:00,5,���쓌,2.7,19.3,75.2,0,0.6,4,��,3.5,55,,
2015/6/14,17:00:00,4,��,2.9,16.8,84.9,0,0.35,4,��,5.4,22,,
2015/6/14,18:00:00,4,��,2.7,14.4,92.1,0,0.13,4,��,4.7,9,,
2015/6/14,19:00:00,3,���k��,2.3,13.7,94.7,0,0.02,4,��,4.1,48,,
2015/6/14,20:00:00,3,���k��,2.2,13.9,96,0,0,3,���k��,3.4,54,,
2015/6/14,21:00:00,2,�k��,1.6,13.7,96.1,0,0,3,���k��,3.5,26,,
2015/6/14,22:00:00,2,�k��,1.1,13.6,94.3,0,0,1,�k�k��,4.5,25,,
2015/6/14,23:00:00,2,�k��,1.9,12.8,96.3,0,0,2,�k��,3.1,18,,
2015/6/14,0:00:00,3,���k��,1.7,12,97.8,0,0,3,���k��,4.2,21,,
2015/6/15,1:00:00,2,�k��,1.5,12.8,98.5,0,0,1,�k�k��,3.6,59,,
2015/6/15,2:00:00,1,�k�k��,1.5,13,99.4,0,0,2,�k��,3.2,0,,
2015/6/15,3:00:00,13,���k��,0.9,13.7,99.7,0,0,13,���k��,2.3,24,,
2015/6/15,4:00:00,16,�k,0.5,13.9,99.7,0,0,12,��,1.8,11,,
2015/6/15,5:00:00,5,�É�,0,13.7,99.9,0,0.02,6,�쓌,2.1,15,,
2015/6/15,6:00:00,12,��,0.7,14,99.9,0,0.07,13,���k��,1.6,56,,
2015/6/15,7:00:00,1,�k�k��,0.4,14.7,99.1,0,0.15,12,��,1.7,18,,
2015/6/15,8:00:00,1,�k�k��,1,16.3,94,0,0.27,2,�k��,2.4,55,,
2015/6/15,9:00:00,5,���쓌,1.4,18.5,89.8,0,0.53,5,���쓌,2.6,49,,
2015/6/15,10:00:00,6,�쓌,2.9,17.8,87.6,0,0.86,5,���쓌,4.9,59,,
2015/6/15,11:00:00,6,�쓌,2.5,16,89,0,0.74,6,�쓌,5.1,2,,
2015/6/15,12:00:00,6,�쓌,2.6,15.8,88.8,0,0.75,6,�쓌,4.5,39,,
2015/6/15,13:00:00,7,��쓌,2.5,16.1,91.7,0,0.74,7,��쓌,4.3,55,,
2015/6/15,14:00:00,7,��쓌,2.3,16.2,90.5,0,0.75,7,��쓌,4.7,26,,
2015/6/15,15:00:00,7,��쓌,1.4,16.7,86.1,0,0.73,8,��,4.4,26,,
2015/6/15,16:00:00,6,�쓌,2.2,16.1,86,0,0.57,8,��,3.6,29,,
2015/6/15,17:00:00,5,���쓌,2.5,13.5,95.8,0,0.35,6,�쓌,3.9,13,,
2015/6/15,18:00:00,4,��,2.5,12.4,98.2,0,0.09,5,���쓌,3.8,51,,
2015/6/15,19:00:00,3,���k��,0.8,12,99.3,0,0.03,4,��,3.2,8,,
2015/6/15,20:00:00,5,���쓌,1.4,11.7,99.7,0,0,5,���쓌,2.1,51,,
2015/6/15,21:00:00,12,��,0.4,11.8,100,0,0,3,���k��,1.5,23,,
2015/6/15,22:00:00,12,��,0.7,11.8,100,0,0,13,���k��,1.3,49,,
2015/6/15,23:00:00,15,�k�k��,0.7,11.7,100,0,0,1,�k�k��,1.5,59,,
2015/6/15,0:00:00,1,�k�k��,1.1,11.6,100,0,0,2,�k��,1.9,59,,
2015/6/16,1:00:00,1,�k�k��,1.4,11.6,100,0,0,1,�k�k��,2.5,59,,
2015/6/16,2:00:00,16,�k,0.7,11.7,100,0,0,1,�k�k��,2.7,1,,
2015/6/16,3:00:00,14,�k��,0.7,11.8,100,0,0,14,�k��,1.6,49,,
2015/6/16,4:00:00,1,�k�k��,0.3,12.7,100,0,0,3,���k��,2.4,15,,
2015/6/16,5:00:00,14,�k��,0.6,12.8,100,0,0.02,3,���k��,2.2,15,,
2015/6/16,6:00:00,11,���쐼,0.3,13.2,100,0,0.08,14,�k��,1.3,2,,
2015/6/16,7:00:00,8,��,0.6,13.4,100,0,0.14,9,��쐼,1.4,49,,
2015/6/16,8:00:00,5,���쓌,1.2,14.3,100,0,0.24,5,���쓌,2.1,49,,
2015/6/16,9:00:00,4,��,1,16.1,99.6,0,0.44,5,���쓌,2.5,44,,
2015/6/16,10:00:00,4,��,2.7,17.4,88.6,0,0.86,5,���쓌,4.3,37,,
2015/6/16,11:00:00,6,�쓌,3.1,16.1,86.3,0,0.96,6,�쓌,4.7,44,,
2015/6/16,12:00:00,5,���쓌,3.1,14.8,90.6,0,0.75,5,���쓌,4.9,17,,
2015/6/16,13:00:00,6,�쓌,2.6,15.2,91.3,0,0.55,5,���쓌,5,37,,
2015/6/16,14:00:00,7,��쓌,2.6,14.9,93.8,0,0.47,6,�쓌,4.8,55,,
2015/6/16,15:00:00,6,�쓌,2.1,14.7,94.6,0,0.32,6,�쓌,4.9,20,,
2015/6/16,16:00:00,5,���쓌,1.9,14.3,96.2,0,0.22,4,��,4.1,21,,
2015/6/16,17:00:00,5,���쓌,1.3,13.8,97.5,0,0.12,5,���쓌,3.6,32,,
2015/6/16,18:00:00,5,���쓌,1.3,13.8,97.7,0,0.07,5,���쓌,3,30,,
2015/6/16,19:00:00,4,��,1,13.4,98.2,0,0.01,5,���쓌,2.5,9,,
2015/6/16,20:00:00,8,�É�,0.1,13.2,99,0,0,5,���쓌,2.1,41,,
2015/6/16,21:00:00,4,��,1.1,13.2,99.5,0,0,3,���k��,2.5,38,,
2015/6/16,22:00:00,5,���쓌,0.4,13,99.7,0,0,4,��,2.1,7,,
2015/6/16,23:00:00,1,�k�k��,0.9,13,99.8,0,0,2,�k��,2.1,19,,
2015/6/16,0:00:00,1,�k�k��,1.3,12.9,99.9,0,0,2,�k��,3.1,31,,
2015/6/17,1:00:00,16,�k,0.9,13,100,0,0,1,�k�k��,2.1,51,,
2015/6/17,2:00:00,16,�k,0.3,13,100,0,0,15,�k�k��,1.7,5,,
2015/6/17,3:00:00,16,�k,0.6,13,100,0,0,2,�k��,2.3,47,,
2015/6/17,4:00:00,16,�k,0.9,13.1,100,0,0,15,�k�k��,2,54,,
2015/6/17,5:00:00,2,�k��,1.1,13.2,99.9,0,0.02,2,�k��,1.9,59,,
2015/6/17,6:00:00,3,���k��,0.8,13.4,99.9,0,0.05,2,�k��,2,1,,
2015/6/17,7:00:00,3,���k��,1,13.8,99.8,0,0.08,2,�k��,2.8,27,,
2015/6/17,8:00:00,2,�k��,0.9,14.4,99.1,0,0.11,1,�k�k��,1.9,22,,